Time,TemperatureF,DewpointF,PressureIn,WindDirection,WindDirectionDegrees,WindSpeedMPH,WindSpeedGustMPH,Humidity,HourlyPrecipIn,Conditions,Clouds,dailyrainin,SoftwareType,DateUTC
2014-07-11 00:02:00,57.6,57.0,29.99,WSW,248,0.0,3.0,98,0.00,,,0.00,meteohub,2014-07-11 07:02:00,
2014-07-11 00:07:00,57.6,57.0,29.99,West,270,1.0,3.0,98,0.00,,,0.00,meteohub,2014-07-11 07:07:00,
2014-07-11 00:12:00,57.6,57.0,29.99,SSE,158,0.0,4.0,98,0.00,,,0.00,meteohub,2014-07-11 07:12:00,
2014-07-11 00:22:00,57.4,56.8,29.96,SW,225,0.0,4.0,98,0.00,,,0.00,meteohub,2014-07-11 07:22:00,
2014-07-11 00:27:00,57.2,56.7,29.96,SW,225,0.0,3.0,98,0.00,,,0.00,meteohub,2014-07-11 07:27:00,
2014-07-11 00:32:00,56.8,56.3,29.99,East,90,0.0,3.0,98,0.00,,,0.00,meteohub,2014-07-11 07:32:00,
2014-07-11 00:37:00,56.7,56.1,29.99,SW,225,0.0,3.0,98,0.00,,,0.00,meteohub,2014-07-11 07:37:00,
2014-07-11 00:42:00,56.7,56.1,29.99,WSW,248,3.0,3.0,98,0.00,,,0.00,meteohub,2014-07-11 07:42:00,
2014-07-11 00:47:00,56.7,56.1,29.99,West,270,0.0,3.0,98,0.00,,,0.00,meteohub,2014-07-11 07:47:00,
2014-07-11 00:52:00,56.7,56.1,29.99,West,270,3.0,3.0,98,0.00,,,0.00,meteohub,2014-07-11 07:52:00,
2014-07-11 00:57:00,56.5,55.9,29.99,WSW,248,0.0,4.0,98,0.00,,,0.00,meteohub,2014-07-11 07:57:00,
2014-07-11 01:02:00,56.5,55.9,29.99,NNE,22,0.0,4.0,98,0.00,,,0.00,meteohub,2014-07-11 08:02:00,
2014-07-11 01:07:00,56.5,55.9,29.99,NNE,22,2.0,4.0,98,0.00,,,0.00,meteohub,2014-07-11 08:07:00,
2014-07-11 01:12:00,56.5,55.9,29.99,NW,315,0.0,4.0,98,0.00,,,0.00,meteohub,2014-07-11 08:12:00,
2014-07-11 01:17:00,56.5,55.9,29.99,NE,45,0.0,2.0,98,0.00,,,0.00,meteohub,2014-07-11 08:17:00,
2014-07-11 01:22:00,56.3,55.8,29.99,NNW,338,2.0,2.0,98,0.00,,,0.00,meteohub,2014-07-11 08:22:00,
2014-07-11 01:27:00,56.3,55.8,29.99,SW,225,0.0,3.0,98,0.00,,,0.00,meteohub,2014-07-11 08:27:00,
2014-07-11 01:32:00,56.1,55.6,29.99,WSW,248,3.0,3.0,98,0.00,,,0.00,meteohub,2014-07-11 08:32:00,
2014-07-11 01:37:00,56.1,55.6,29.99,North,0,0.0,3.0,98,0.00,,,0.00,meteohub,2014-07-11 08:37:00,
2014-07-11 01:42:00,56.3,55.8,29.99,WSW,248,1.0,3.0,98,0.00,,,0.00,meteohub,2014-07-11 08:42:00,
2014-07-11 01:47:00,56.3,55.8,29.99,WNW,292,1.0,3.0,98,0.00,,,0.00,meteohub,2014-07-11 08:47:00,
2014-07-11 01:52:00,56.1,55.6,29.99,SW,225,3.0,3.0,98,0.00,,,0.00,meteohub,2014-07-11 08:52:00,
2014-07-11 01:57:00,56.1,55.6,29.99,ENE,68,0.0,3.0,98,0.00,,,0.00,meteohub,2014-07-11 08:57:00,
2014-07-11 02:02:00,56.1,55.6,29.99,NNE,22,0.0,6.0,98,0.00,,,0.00,meteohub,2014-07-11 09:02:00,
2014-07-11 02:07:00,55.9,55.4,29.99,WSW,248,0.0,6.0,98,0.00,,,0.00,meteohub,2014-07-11 09:07:00,
2014-07-11 02:12:00,55.9,55.4,29.99,SSW,202,0.0,3.0,98,0.00,,,0.00,meteohub,2014-07-11 09:12:00,
2014-07-11 02:22:00,55.8,55.2,29.99,West,270,0.0,3.0,98,0.00,,,0.00,meteohub,2014-07-11 09:22:00,
2014-07-11 02:27:00,55.8,55.2,29.99,NW,315,0.0,3.0,98,0.00,,,0.00,meteohub,2014-07-11 09:27:00,
2014-07-11 02:32:00,55.6,55.0,29.99,West,270,2.0,2.0,98,0.00,,,0.00,meteohub,2014-07-11 09:32:00,
2014-07-11 02:37:00,55.6,55.0,29.99,North,0,0.0,2.0,98,0.00,,,0.00,meteohub,2014-07-11 09:37:00,
2014-07-11 02:42:00,55.6,55.0,29.99,SW,225,0.0,2.0,98,0.00,,,0.00,meteohub,2014-07-11 09:42:00,
2014-07-11 02:47:00,55.6,55.0,29.99,SW,225,0.0,2.0,98,0.00,,,0.00,meteohub,2014-07-11 09:47:00,
2014-07-11 02:52:00,55.4,54.9,29.99,WNW,292,0.0,2.0,98,0.00,,,0.00,meteohub,2014-07-11 09:52:00,
2014-07-11 02:57:00,55.4,54.9,29.99,WSW,248,0.0,3.0,98,0.00,,,0.00,meteohub,2014-07-11 09:57:00,
2014-07-11 03:02:00,55.4,54.9,29.99,ENE,68,3.0,3.0,98,0.00,,,0.00,meteohub,2014-07-11 10:02:00,
2014-07-11 03:07:00,55.2,54.7,30.01,SSW,202,0.0,4.0,98,0.00,,,0.00,meteohub,2014-07-11 10:07:00,
2014-07-11 03:12:00,55.0,54.5,30.01,SSW,202,0.0,4.0,98,0.00,,,0.00,meteohub,2014-07-11 10:12:00,
2014-07-11 03:17:00,54.9,54.3,29.99,WNW,292,0.0,3.0,98,0.00,,,0.00,meteohub,2014-07-11 10:17:00,
2014-07-11 03:22:00,37.9,37.4,29.99,SSW,202,1.0,3.0,98,0.00,,,0.00,meteohub,2014-07-11 10:22:00,
2014-07-11 03:27:00,23.5,23.0,29.99,WSW,248,0.0,3.0,98,0.00,,,0.00,meteohub,2014-07-11 10:27:00,
2014-07-11 03:32:00,2.7,2.3,29.99,NNW,338,0.0,3.0,98,0.00,,,0.00,meteohub,2014-07-11 10:32:00,
2014-07-11 03:37:00,-4.2,-4.5,29.99,North,0,2.0,2.0,98,0.00,,,0.00,meteohub,2014-07-11 10:37:00,
2014-07-11 03:42:00,-3.5,-3.8,29.99,West,270,2.0,2.0,98,0.00,,,0.00,meteohub,2014-07-11 10:42:00,
2014-07-11 03:47:00,-3.5,-3.8,30.01,SW,225,0.0,2.0,98,0.00,,,0.00,meteohub,2014-07-11 10:47:00,
2014-07-11 03:52:00,11.1,10.6,30.01,WNW,292,0.0,3.0,98,0.00,,,0.00,meteohub,2014-07-11 10:52:00,
2014-07-11 03:57:00,9.7,9.3,30.01,WSW,248,1.0,4.0,98,0.00,,,0.00,meteohub,2014-07-11 10:57:00,
2014-07-11 04:02:00,28.9,28.4,30.01,West,270,3.0,4.0,98,0.00,,,0.00,meteohub,2014-07-11 11:02:00,
2014-07-11 04:07:00,35.1,34.5,30.01,West,270,3.0,4.0,98,0.00,,,0.00,meteohub,2014-07-11 11:07:00,
2014-07-11 04:12:00,65.8,65.3,30.01,WSW,248,2.0,4.0,98,0.00,,,0.00,meteohub,2014-07-11 11:12:00,
2014-07-11 04:17:00,78.6,78.1,30.01,WSW,248,0.0,4.0,98,0.00,,,0.00,meteohub,2014-07-11 11:17:00,
2014-07-11 04:37:00,85.8,84.6,30.01,North,0,0.0,2.0,96,0.00,,,0.00,meteohub,2014-07-11 11:37:00,
2014-07-11 04:42:00,66.2,65.7,30.01,South,180,0.0,2.0,98,0.00,,,0.00,meteohub,2014-07-11 11:42:00,
2014-07-11 04:47:00,46.0,45.5,30.01,SW,225,0.0,2.0,98,0.00,,,0.00,meteohub,2014-07-11 11:47:00,
2014-07-11 04:52:00,41.0,40.5,30.01,NW,315,0.0,2.0,98,0.00,,,0.00,meteohub,2014-07-11 11:52:00,
2014-07-11 04:57:00,45.3,44.8,30.01,SSW,202,0.0,2.0,98,0.00,,,0.00,meteohub,2014-07-11 11:57:00,
2014-07-11 05:02:00,55.8,55.2,30.01,WSW,248,0.0,1.0,98,0.00,,,0.00,meteohub,2014-07-11 12:02:00,
2014-07-11 05:07:00,57.9,57.4,30.01,WSW,248,0.0,2.0,98,0.00,,,0.00,meteohub,2014-07-11 12:07:00,
2014-07-11 05:12:00,57.9,57.4,30.01,WSW,248,3.0,4.0,98,0.00,,,0.00,meteohub,2014-07-11 12:12:00,
2014-07-11 05:17:00,56.7,56.1,30.01,NE,45,0.0,4.0,98,0.00,,,0.00,meteohub,2014-07-11 12:17:00,
2014-07-11 05:27:00,64.4,63.9,30.01,WNW,292,0.0,3.0,98,0.00,,,0.00,meteohub,2014-07-11 12:27:00,
2014-07-11 05:32:00,83.8,82.6,30.01,NNW,338,0.0,0.0,96,0.00,,,0.00,meteohub,2014-07-11 12:32:00,
2014-07-11 05:37:00,115.3,99.9,30.01,SW,225,0.0,3.0,89,0.00,,,0.00,meteohub,2014-07-11 12:37:00,
2014-07-11 05:42:00,113.0,99.9,30.01,East,90,0.0,4.0,90,0.00,,,0.00,meteohub,2014-07-11 12:42:00,
2014-07-11 05:57:00,133.0,99.9,30.01,NNW,338,0.0,2.0,85,0.00,,,0.00,meteohub,2014-07-11 12:57:00,
2014-07-11 06:02:00,138.4,99.9,30.01,ENE,68,0.0,2.0,84,0.00,,,0.00,meteohub,2014-07-11 13:02:00,
2014-07-11 06:37:00,32.0,27.7,30.04,NW,315,0.0,2.0,84,0.00,,,0.00,meteohub,2014-07-11 13:37:00,
2014-07-11 06:42:00,32.0,27.7,30.04,NNW,338,0.0,2.0,84,0.00,,,0.00,meteohub,2014-07-11 13:42:00,